This is the latest recevied weather packets stored in our database for station/object XE2B-20. If no packets are shown the sender has not sent any weather packets the latest 10 day(s).
| Time | Temp. | Humidity | Pressure | Rain* | Wind** | Luminosity | Snow |
|---|---|---|---|---|---|---|---|
| 1777954166 | 22.78° C | 17% | 805.2 hPa | - | - | - | - |
| 1777952668 | 23.33° C | 17% | 805 hPa | - | - | - | - |
| 1777951169 | 23.89° C | 16% | 804.6 hPa | - | - | - | - |
| 1777949671 | 24.44° C | 17% | 804.4 hPa | - | - | - | - |
| 1777948171 | 25° C | 16% | 804.1 hPa | - | - | - | - |
| 1777946673 | 26.11° C | 16% | 803.8 hPa | - | - | - | - |
| 1777945173 | 26.67° C | 16% | 803.5 hPa | - | - | - | - |
| 1777943677 | 27.22° C | 16% | 803.4 hPa | - | - | - | - |
| 1777942177 | 29.44° C | 16% | 803.2 hPa | - | - | - | - |
| 1777940678 | 30.56° C | 15% | 803.2 hPa | - | - | - | - |
| 1777939185 | 31.67° C | 14% | 803.1 hPa | - | - | - | - |
| 1777937682 | 32.78° C | 14% | 803.2 hPa | - | - | - | - |
| 1777936185 | 33.33° C | 14% | 803.3 hPa | - | - | - | - |
| 1777934685 | 34.44° C | 14% | 803.4 hPa | - | - | - | - |
| 1777933187 | 34.44° C | 14% | 803.5 hPa | - | - | - | - |
| 1777931689 | 35° C | 14% | 803.8 hPa | - | - | - | - |
| 1777930190 | 35.56° C | 13% | 804 hPa | - | - | - | - |
| 1777928692 | 34.44° C | 14% | 804.2 hPa | - | - | - | - |
| 1777927192 | 34.44° C | 14% | 804.7 hPa | - | - | - | - |
| 1777925695 | 34.44° C | 14% | 805.2 hPa | - | - | - | - |
| 1777924196 | 33.33° C | 15% | 805.3 hPa | - | - | - | - |
| 1777922698 | 32.22° C | 16% | 805.6 hPa | - | - | - | - |
| 1777921200 | 32.78° C | 15% | 806 hPa | - | - | - | - |
| 1777919702 | 32.78° C | 16% | 806.1 hPa | - | - | - | - |
| 1777918203 | 32.22° C | 15% | 806.5 hPa | - | - | - | - |
* Rain since midnight (hover to see other rain measurements)
** Current wind speed in m/s (hover to see current wind gust speed)